Location: Avon
(37.7514°N, 90.2235°W)
Time: 11:43:06
(UTC+00:00)

A-11 Canister half - Pass Details

Date: 15 November 2025
Orbit: 1526 x 1681 km, 47.3° (Epoch: 05 December)

Event Time Altitude Azimuth Distance (km) Brightness Sun altitude
Rises 04:00:51 0° 291° (WNW) 4,829 12.0 -60.2°
Reaches altitude 10° 04:04:09 10° 296° (WNW) 3,820 11.4 -60.7°
Enters shadow 04:05:36 15° 300° (WNW) 3,395 11.0 -61.0°
